Alert Airport,

7:20 AM MDT on May 24, 2017 (GMT -0600)
Alert Airport

Weather History for CYLT - September, 2013

Change the Weather History Date:

Wednesday, September 18, 2013

  Actual Average Record
Temperature  
Mean Temperature 14 °F -  
Max Temperature 21 °F - - ()
Min Temperature 6 °F - - ()
Degree Days  
Heating Degree Days 52    
Moisture  
Dew Point 13 °F    
Average Humidity 92    
Maximum Humidity 93    
Minimum Humidity 85    
Precipitation  
Precipitation 0.00 in - - ()
Sea Level Pressure  
Sea Level Pressure 29.99 in    
Wind  
Wind Speed 4 mph ()    
Max Wind Speed 7 mph    
Max Gust Speed -    
Visibility 1.1 miles    
Events Fog , Snow    
T = Trace of Precipitation, MM = Missing Value Source: Averaged Metar Reports

Daily Weather History Graph

Daily Weather History Graph

Search for Another Location

Airport or City:

Trip Planner

Search our weather history database for the weather conditions in past years. The results will help you decide how hot, cold, wet, or windy it might be!

Date:

Astronomy

Sep. 18, 2013 Rise Set
Actual Time 2:42 AM MDT 5:15 PM MDT
Civil Twilight 10:35 PM MDT 9:39 PM MDT
Nautical Twilight Sun does not set Sun does not set
Astronomical Twilight Sun does not set Sun does not set
Moon 4:01 PM MDT (9/18) 12:49 AM MDT (9/18)
Length of Visible Light 23h 03m
Length of Day
14h 33m
Waxing Gibbous, 99% of the Moon is Illuminated
Sep 18
Waxing Gibbous
Sep 19
Full
Sep 26
Last Quarter
Oct 4
New
Oct 11
First Quarter

Hourly Weather History & Observations

Time (MDT) Temp. Windchill Dew Point Humidity Pressure Visibility Wind Dir Wind Speed Gust Speed Precip Events Conditions
12:49 AM - - - N/A% - 2.0 mi Calm Calm - N/A   Overcast
1:00 AM 19.4 °F - 17.6 °F 93% 29.96 in 2.0 mi SW 2.3 mph - N/A   Overcast
2:00 AM 19.4 °F 14.3 °F 17.6 °F 93% 29.96 in 3.0 mi ESE 3.5 mph - N/A   Overcast
3:00 AM 19.4 °F 14.3 °F 17.6 °F 93% 29.97 in 2.0 mi East 3.5 mph - N/A   Overcast
4:00 AM 21.2 °F - 19.4 °F 93% 29.97 in 2.0 mi NNE 2.3 mph - N/A Snow Light Snow
5:00 AM 19.4 °F 12.8 °F 17.6 °F 93% 29.98 in 2.0 mi NNE 4.6 mph - N/A Snow Light Snow
6:00 AM 19.4 °F 14.3 °F 17.6 °F 93% 29.98 in 0.5 mi NNE 3.5 mph - N/A Fog Light Freezing Fog
7:00 AM 19.4 °F 14.3 °F 17.6 °F 93% 29.98 in 0.5 mi North 3.5 mph - N/A Fog Light Freezing Fog
7:45 AM - - - N/A% - 0.6 mi North 5.8 mph - N/A Fog Light Freezing Fog
8:00 AM 19.4 °F 14.3 °F 17.6 °F 93% 29.98 in 0.4 mi NNE 3.5 mph - N/A Fog Light Freezing Fog
9:00 AM 19.4 °F 12.8 °F 17.6 °F 93% 29.99 in 1.2 mi NE 4.6 mph - N/A   Overcast
10:00 AM 19.4 °F 11.5 °F 17.6 °F 93% 29.99 in 0.5 mi NE 5.8 mph - N/A Fog Light Freezing Fog
10:37 AM - - - N/A% - 1.2 mi NNE 5.8 mph - N/A   Overcast
11:00 AM 17.6 °F 10.7 °F 15.8 °F 93% 29.99 in 0.8 mi NNE 4.6 mph - N/A   Overcast
12:00 PM 17.6 °F 8.2 °F 15.8 °F 93% 29.99 in 0.4 mi NE 6.9 mph - N/A Fog Light Freezing Fog
12:44 PM - - - N/A% - 1.2 mi NE 4.6 mph - N/A   Overcast
1:00 PM 15.8 °F 7.2 °F 14.0 °F 93% 30.00 in 1.0 mi ENE 5.8 mph - N/A   Overcast
1:38 PM - - - N/A% - 0.5 mi NE 4.6 mph - N/A Fog Light Freezing Fog
2:00 PM 15.8 °F 10.2 °F 14.0 °F 93% 30.00 in 0.5 mi NE 3.5 mph - N/A Fog Light Freezing Fog
3:00 PM 14.0 °F 8.2 °F 12.2 °F 93% 30.00 in 0.5 mi NNE 3.5 mph - N/A Fog Light Freezing Fog
4:00 PM 14.0 °F 3.9 °F 12.2 °F 93% 30.00 in 0.5 mi North 6.9 mph - N/A Fog Light Freezing Fog
5:00 PM 12.2 °F 1.7 °F 10.4 °F 92% 30.00 in 0.4 mi North 6.9 mph - N/A Fog Light Freezing Fog
6:00 PM 10.4 °F 0.8 °F 6.8 °F 85% 30.00 in 0.2 mi North 5.8 mph - N/A Fog Light Freezing Fog
7:00 PM 8.6 °F 0.1 °F 5.0 °F 85% 30.01 in 0.5 mi NNE 4.6 mph - N/A Fog Light Freezing Fog
7:26 PM - - - N/A% - 2.0 mi North 5.8 mph - N/A   Overcast
8:00 PM 6.8 °F -4.8 °F 5.0 °F 92% 30.01 in 3.0 mi North 6.9 mph - N/A   Overcast
9:00 PM 6.8 °F -4.8 °F 5.0 °F 92% 30.00 in 0.5 mi WNW 6.9 mph - N/A Fog Light Freezing Fog
10:00 PM 8.6 °F -2.6 °F 5.0 °F 85% 29.99 in 0.5 mi NW 6.9 mph - N/A Fog , Snow Light Snow
11:00 PM 6.8 °F -4.8 °F 5.0 °F 92% 29.99 in 0.5 mi North 6.9 mph - N/A Fog , Snow Light Snow